EHI
2 1 1 1 3 7 10 10 9 8 6 3 1 0 0 0 0 0 0 0 1 1 1 0 0 0 0 0 0 0 0 0 0 0 0 1 1 1 0 0 0 0 0
4 4 4 3 5 7 9 8 8 7 5 2 0 0 0 0 0 0 0 0 0 0 0 0 0 0 0 0 0 0 0 0 0 0 0 0 1 1 0 0 0 0 0
8 9 9 8 7 6 7 6 7 7 5 3 1 0 0 0 0 0 0 0 0 0 0 0 0 0 0 0 1 0 0 0 0 0 0 0 1 1 1 0 0 0 0
11 13 14 12 9 7 6 7 8 9 8 6 2 0 0 0 0 0 0 0 1 2 1 0 0 0 0 0 0 0 1 2 1 0 0 0 1 2 2 1 0 0 0
9 12 14 14 11 8 8 9 12 13 12 9 5 2 0 1 1 1 0 1 2 3 2 1 0 0 0 0 0 1 2 3 3 2 2 1 1 2 3 2 1 1 1
7 9 12 13 13 12 13 15 19 19 15 11 8 4 2 2 2 2 2 2 3 3 3 1 0 1 1 1 1 1 3 4 5 4 3 3 3 4 5 4 3 2 2
5 7 9 12 14 16 19 23 25 24 18 13 11 8 4 2 2 2 2 2 3 4 3 2 1 2 3 3 3 3 3 4 5 4 4 3 3 4 6 6 5 4 4
5 6 8 10 14 18 25 28 28 27 22 17 14 11 8 4 2 1 1 3 4 4 4 3 3 4 4 5 6 5 4 5 5 4 4 5 4 5 7 8 7 6 4
8 8 8 10 13 19 26 30 31 29 24 19 17 15 12 10 6 3 2 4 6 6 4 5 6 7 8 9 9 8 7 7 6 5 6 7 7 7 10 11 11 9 7
11 11 11 12 15 18 23 28 31 29 23 19 17 16 16 16 13 8 5 6 7 8 7 8 9 10 11 13 12 11 11 10 8 7 9 9 9 10 12 14 15 14 12
13 14 15 15 15 16 19 23 26 25 21 18 17 17 18 19 18 15 11 10 10 11 12 13 13 12 12 14 14 13 14 13 11 10 11 11 12 14 15 16 17 17 15
16 18 20 18 16 14 15 19 21 21 19 18 19 19 20 20 20 19 17 16 15 16 16 14 12 11 12 14 14 14 15 15 15 14 14 13 14 16 17 18 18 18 17
19 22 25 24 19 16 16 19 19 19 19 21 23 23 22 21 21 20 19 19 19 18 16 13 9 9 11 13 14 14 15 18 19 18 16 14 14 16 18 20 20 19 18
23 25 28 27 22 20 22 23 22 21 23 26 27 27 25 22 21 20 20 20 19 17 14 11 8 8 9 11 14 15 17 19 21 20 18 15 13 13 16 19 21 20 19
27 29 30 28 24 24 28 30 29 29 30 30 28 27 25 22 20 19 19 19 18 17 15 12 11 10 10 11 14 17 18 18 18 17 16 15 13 12 11 13 16 17 17
30 31 32 29 27 28 32 34 34 35 36 33 28 25 23 21 19 18 18 19 21 21 19 17 15 14 12 11 11 13 15 16 16 14 13 12 12 11 8 7 8 9 10
29 30 29 29 29 30 32 35 36 37 38 35 28 24 23 20 19 18 19 21 22 22 21 19 18 16 13 9 5 6 10 14 14 13 11 10 10 11 8 6 5 6 7
27 27 27 28 28 28 29 32 35 36 37 35 31 27 24 22 22 23 23 23 23 22 21 20 18 16 12 6 1 2 6 9 11 11 10 11 12 12 10 10 10 11 13
26 26 27 28 27 25 28 34 37 37 35 33 30 28 26 25 26 28 27 26 26 25 24 23 21 18 13 6 1 1 4 6 9 11 11 12 13 12 11 13 16 18 20
27 27 27 28 28 27 31 38 41 39 34 30 28 27 27 28 30 31 31 31 29 28 27 26 23 20 15 8 2 2 4 7 10 13 14 13 11 8 7 12 18 21 21
26 25 25 27 28 30 34 37 38 36 32 28 26 25 27 29 30 31 33 33 31 28 26 24 22 19 15 9 3 2 4 8 13 15 15 13 9 4 2 6 13 15 15
22 21 22 25 26 28 31 31 30 29 28 26 24 23 24 26 28 31 32 31 29 26 24 22 19 17 15 11 5 2 2 6 11 13 13 11 6 1 0 2 4 5 4
17 16 17 19 21 23 25 24 21 21 22 22 21 20 20 22 25 27 26 25 26 25 23 22 20 18 16 14 9 5 2 4 7 8 8 5 2 0 0 0 0 0 0
13 12 12 13 15 18 19 16 14 15 17 18 18 19 20 21 22 21 19 19 22 23 22 20 19 18 16 14 11 8 5 5 6 6 4 3 3 2 2 1 1 0 0
11 10 9 9 11 14 14 13 12 12 14 15 17 19 20 19 19 19 17 16 16 17 16 16 16 15 12 9 8 8 7 6 6 6 5 6 7 6 6 5 3 1 0
10 8 8 9 9 11 13 13 12 12 13 15 17 19 17 17 18 18 16 13 12 11 10 12 13 12 9 6 5 6 5 5 6 7 7 9 10 9 9 8 5 2 1
Wind_Speed
8 8 8 7 7 7 7 7 6 6 5 3 3 3 3 3 3 3 4 4 3 4 3 2 4 3 3 3 4 3 4 3 2 2 2 2 2 2 2 2 2 3 3
9 9 8 8 8 8 8 8 7 7 6 4 3 2 2 3 3 2 3 3 4 3 4 3 3 3 3 4 4 3 2 2 2 2 2 3 3 3 2 2 3 3 3
10 10 10 9 9 9 9 7 8 7 7 6 4 4 4 3 3 4 3 3 3 3 2 3 2 3 3 3 3 3 3 2 2 2 2 1 1 2 3 2 2 2 2
10 10 11 10 10 9 9 8 8 7 7 6 5 5 4 3 3 3 3 4 3 3 3 3 3 3 3 3 4 4 3 3 3 3 2 2 1 2 2 3 3 3 3
11 11 11 11 10 10 9 9 9 8 8 7 6 5 4 4 3 3 4 3 3 3 4 3 3 3 3 3 3 3 4 4 4 3 3 3 2 4 3 2 3 3 3
11 11 11 10 10 10 9 9 9 9 8 8 7 6 5 4 4 4 4 4 4 4 4 4 4 4 3 4 4 4 5 4 4 4 3 3 3 3 3 3 3 3 2
11 11 11 11 11 11 10 10 10 9 9 8 7 7 6 6 5 5 5 4 4 4 5 5 4 4 4 4 4 4 4 5 5 5 4 4 4 3 3 3 3 3 2
10 11 11 11 11 12 11 11 10 10 9 8 7 6 6 5 4 5 4 4 3 3 4 5 5 5 5 5 4 5 5 4 5 6 5 4 4 4 3 3 3 3 3
9 10 11 11 11 11 11 11 11 10 9 9 8 7 7 6 4 4 5 4 3 4 5 5 5 5 5 5 5 4 4 4 5 5 6 5 4 4 4 4 4 4 4
7 8 9 10 10 10 11 11 10 10 9 9 8 6 7 6 6 5 5 4 4 3 4 5 5 5 5 5 5 5 4 5 4 4 5 5 5 4 5 4 4 5 5
6 7 8 9 10 10 10 10 10 9 8 8 8 7 6 6 6 5 5 5 4 4 4 5 5 5 5 5 5 5 5 5 5 5 6 6 6 5 4 4 5 5 5
5 7 7 8 8 9 10 10 9 9 8 8 7 7 6 6 6 6 5 5 4 4 4 4 5 5 5 4 5 6 6 6 6 6 6 6 5 5 5 4 5 4 4
5 6 7 7 7 7 8 9 9 9 8 8 8 7 7 6 6 5 5 5 5 4 4 4 4 4 4 5 5 6 6 6 6 6 6 6 6 6 5 5 5 5 5
5 6 6 6 6 6 7 8 8 8 8 8 8 7 7 7 6 6 5 5 5 5 5 4 4 4 5 5 5 5 6 6 6 6 6 6 7 7 7 6 6 6 5
5 5 5 5 5 6 6 7 7 7 7 7 7 7 7 6 6 5 5 5 5 5 5 5 4 4 5 5 5 6 6 6 6 6 6 6 5 5 5 5 5 5 5
4 4 5 5 5 5 5 6 6 6 7 7 7 6 6 6 6 6 5 5 5 5 5 5 5 5 4 2 2 5 5 5 6 6 6 6 6 6 6 6 5 5 6
3 4 4 4 4 4 5 6 6 6 7 6 6 5 5 5 5 5 5 5 5 5 5 5 5 5 4 3 4 5 6 6 6 6 6 5 4 5 6 6 7 8 7
3 3 3 3 4 4 5 5 5 6 6 6 5 5 6 6 5 5 5 4 4 4 4 4 5 4 4 3 4 5 7 7 6 6 6 6 5 5 5 6 7 8 8
2 1 2 2 3 4 4 5 5 5 6 5 5 5 5 5 5 5 4 4 3 3 4 4 4 4 3 2 4 5 6 5 6 6 6 6 6 4 4 7 7 8 7
2 2 2 3 3 3 4 4 5 4 4 4 4 4 4 4 4 4 4 3 4 4 4 3 3 4 3 2 3 5 5 5 5 5 5 5 5 4 5 8 8 9 8
4 4 3 3 3 3 4 4 4 3 3 3 3 3 3 3 3 3 2 3 3 3 3 3 3 3 3 3 4 4 5 5 5 5 5 3 4 5 6 8 8 7 7
5 4 4 4 3 3 4 4 3 2 2 3 3 3 3 2 2 2 2 3 3 3 4 3 3 2 2 2 3 5 6 6 6 5 5 2 2 5 7 7 6 6 8
4 4 4 4 4 3 3 3 2 2 2 3 3 2 2 1 1 2 2 3 3 3 2 2 2 2 2 2 4 6 6 7 6 5 4 4 4 6 7 8 8 7 6
4 4 4 4 4 3 3 3 2 1 2 3 2 2 2 2 2 2 2 1 1 2 2 2 3 2 2 1 1 2 3 4 5 5 4 6 8 7 5 5 6 6 5
4 3 3 4 4 3 3 3 2 1 0 2 2 2 2 2 2 2 0 1 1 1 2 2 3 3 3 2 3 3 3 3 3 4 4 4 3 4 4 4 4 4 5
4 4 4 4 4 4 4 3 3 2 1 1 1 1 1 1 2 2 1 2 1 2 1 2 4 2 2 2 3 3 4 4 4 4 4 4 4 4 4 4 4 4 5
Wind_Direction
177 173 177 175 172 171 173 176 175 168 176 176 181 172 162 163 153 153 145 155 162 155 172 161 152 172 156 153 151 150 151 155 155 163 151 153 156 149 164 178 175 172 185
176 175 181 180 178 175 177 178 178 175 183 176 181 172 155 161 149 144 142 158 162 170 170 171 182 166 159 165 161 170 178 176 186 214 202 176 159 171 168 173 186 183 182
185 180 183 186 182 179 181 182 181 179 185 181 180 168 161 176 158 162 160 166 170 174 170 168 192 173 192 171 182 193 200 200 197 235 267 250 163 155 157 177 189 190 195
190 186 183 186 185 182 179 181 181 183 184 186 191 186 184 178 167 175 160 163 170 176 175 180 184 195 198 176 204 197 211 212 208 193 239 286 339 238 169 183 184 193 212
190 187 187 185 184 181 178 177 181 183 185 192 189 198 200 187 172 171 159 177 176 190 194 188 192 198 206 201 221 207 224 219 227 222 203 200 213 241 236 195 187 189 203
190 186 184 181 182 180 180 177 177 182 185 190 193 201 203 198 183 179 177 187 183 188 192 194 200 210 213 205 216 221 220 230 234 245 242 227 224 223 231 227 218 209 195
188 185 183 182 184 183 181 179 177 182 185 189 195 199 204 203 201 203 191 200 194 189 185 199 204 213 212 215 220 221 234 228 225 232 240 245 246 253 252 246 239 235 206
185 185 184 184 185 185 183 181 180 183 184 187 192 197 203 210 206 209 216 203 209 199 184 199 206 212 217 219 217 229 224 225 229 234 240 246 246 246 244 248 250 246 229
179 183 183 185 183 184 183 184 182 185 187 188 189 193 199 211 212 204 217 215 209 204 191 204 208 212 215 223 226 235 235 233 235 236 231 239 239 241 244 242 244 255 257
177 176 178 182 181 180 181 184 183 185 187 188 192 190 197 204 212 216 213 224 217 213 208 215 218 220 219 218 225 229 225 237 240 250 256 254 249 241 239 245 247 252 265
174 170 174 178 177 175 177 181 182 184 188 191 192 198 197 202 208 213 218 218 221 217 219 220 223 225 228 224 223 236 227 232 238 241 241 245 258 254 248 242 243 241 247
170 165 163 168 174 175 177 178 182 185 188 189 190 196 199 203 208 210 216 216 217 220 218 221 222 225 228 228 229 239 239 236 238 239 245 250 244 242 255 251 245 242 243
164 163 162 166 173 177 179 180 183 185 186 186 190 191 195 199 207 215 215 217 219 222 226 227 232 234 235 233 235 242 248 246 245 242 242 246 246 245 244 248 250 245 236
164 166 167 167 169 177 180 183 185 183 183 186 189 189 195 200 203 207 211 215 218 222 228 228 233 239 241 238 238 237 243 249 250 248 244 243 244 246 244 240 244 249 247
166 171 177 172 176 178 180 182 184 181 180 184 191 192 195 198 204 207 213 214 216 219 219 225 230 239 241 243 242 242 238 244 248 248 248 247 249 261 259 262 248 241 244
178 179 180 179 182 179 180 178 179 179 178 185 192 190 195 200 205 208 212 211 215 223 221 229 231 236 239 206 221 251 251 248 248 248 246 240 230 230 231 251 260 260 249
194 190 186 182 179 178 178 177 175 175 177 182 187 187 198 206 211 211 208 210 214 220 225 229 230 233 236 204 208 233 252 251 250 250 250 254 235 225 232 218 222 236 245
185 183 184 180 176 174 175 178 174 170 172 177 182 184 193 199 200 203 204 203 204 210 219 227 234 236 239 205 222 236 242 251 251 249 245 250 252 244 244 236 231 234 230
162 162 172 161 157 167 168 169 170 169 174 180 187 191 194 198 196 201 202 201 198 209 218 224 230 239 245 205 218 239 244 244 247 247 245 249 247 229 236 241 240 243 240
109 114 115 117 125 150 157 162 163 166 174 180 188 191 192 199 201 202 204 199 195 204 218 222 229 239 251 201 208 236 249 250 252 244 239 229 248 228 223 240 241 243 245
95 90 94 95 96 113 134 145 143 146 152 155 154 160 167 181 186 186 197 209 208 202 217 225 226 231 242 200 191 221 257 264 264 264 258 244 198 220 231 246 252 252 260
97 93 90 89 90 101 120 129 129 126 129 136 142 149 160 172 157 168 184 211 222 208 210 217 234 233 225 226 197 206 233 270 268 269 273 280 201 228 237 242 252 259 260
93 95 98 96 92 88 95 103 96 100 120 132 140 151 161 157 160 184 190 204 213 232 226 225 232 239 238 195 190 207 228 243 260 278 304 295 256 242 236 228 235 240 245
90 97 104 98 88 83 82 79 61 83 137 144 155 173 175 174 168 209 202 225 236 247 253 263 267 262 254 270 251 240 239 235 247 267 261 237 239 243 253 240 228 235 245
91 95 103 100 91 84 78 70 55 40 136 172 186 197 191 178 192 186 138 245 7 352 291 282 281 288 283 331 340 300 287 289 290 283 271 273 265 258 252 250 246 240 236
95 96 94 92 90 83 75 60 51 37 321 232 222 221 215 188 201 179 156 91 110 107 164 299 305 314 338 330 300 284 283 285 274 268 268 274 273 273 274 269 255 246 246